Regional Weather Roundup
Issued by NWS

Home | Current Version | Previous Version | Graphics & Text | Print | Product List | Glossary On
Versions: 1 2 3 4 5 6 7 8 9 10 11 12 13 14 15 16 17 18 19 20 21 22 23 24 25 26 27 28 29 30 31 32 33 34 35 36 37 38 39 40 41 42 43 44 45 46 47 48 49 50
000
ASUS45 KBOU 110410
RWRCO

WEATHER ROUNDUP FOR COLORADO
NATIONAL WEATHER SERVICE DENVER/BOULDER CO
1000 PM MDT THU JUL 10 2014

NOTE: "FAIR" INDICATES FEW OR NO CLOUDS BELOW 12000 FEET WITH NO
SIGNIFICANT WEATHER AND/OR OBSTRUCTIONS TO VISIBILITY.

COZ001>005-013-030-031-110500-
...NORTHWEST COLORADO...

CITY           SKY/WX    TMP DP  RH WIND       PRES   REMARKS
CRAIG          PTCLDY    66  52  60 CALM      30.14R
HAYDEN         PTCLDY    68  46  45 SW3       30.16R
MEEKER         CLOUDY    71  53  52 CALM      30.15R
MOUNT WERNER   NOT AVBL
STEAMBOAT SPGS PTCLDY    69  47  46 E5        30.18R
WALDEN         CLOUDY    59  50  72 NW8       30.32R
$$

COZ006>008-011-110500-
...WEST CENTRAL VALLEYS...

CITY           SKY/WX    TMP DP  RH WIND       PRES   REMARKS
GRAND JUNCTION CLOUDY    82  50  32 S8        29.99R
MONTROSE       CLOUDY    78  52  40 E10       30.10R
EAGLE          CLOUDY    64  57  77 E9        30.23R
RIFLE          CLOUDY    77  48  35 E10       30.07R
DELTA          CLOUDY    77  55  45 NE13      30.04R
NUCLA          CLOUDY    75  45  33 E12       30.13R
$$

COZ017>023-064>068-110500-
...SOUTHWEST COLORADO...

CITY           SKY/WX    TMP DP  RH WIND       PRES   REMARKS
DURANGO        PTCLDY    68  55  63 CALM      30.18R
CORTEZ         MOCLDY    74  52  46 E7        30.10R
PAGOSA SPRINGS PTCLDY    66  52  60 CALM      30.28R
TELLURIDE      MOCLDY    61  52  72 CALM      30.38R
WOLF CREEK PAS NOT AVBL
$$

COZ009-010-012-014-032>034-037-058>063-110500-
...CENTRAL COLORADO...

CITY           SKY/WX    TMP DP  RH WIND       PRES   REMARKS
ASPEN          CLOUDY    59  54  83 SW8       30.27R
BUENA VISTA    MOCLDY    62  48  60 NW10      30.29R
COPPER MTN     CLOUDY    54  39  58 W7        30.62R
BERTHOUD PASS  CLOUDY    50  36  57 CALM      30.66S
COTTONWOOD PAS CLOUDY    59  43  55 W13       30.43R
GUNNISON       MOCLDY    63  48  59 N6        30.30R
KREMMLING      CLOUDY    61  54  77 S6        30.29R
LEADVILLE      CLOUDY    51  49  92 NE6       30.44R
SALIDA         MOCLDY    69  47  45 NW7       30.33R
SUNLIGHT       TSTM      54  50  87 SW3       30.50R
WILKERSON PASS PTCLDY    54  36  50 SW6       30.57R
$$

COZ069>075-110500-
...SAN LUIS VALLEY/SANGRE DE CRISTO MOUNTAINS...

CITY           SKY/WX    TMP DP  RH WIND       PRES   REMARKS
ALAMOSA        CLOUDY    71  47  42 VRB5      30.23R
LA VETA PASS   PTCLDY    59  43  55 SW8G16    30.45R
SAGUACHE       NOT AVBL
$$

COZ035-036-038>040-110500-
...NORTHERN COLORADO FRONT RANGE...

CITY           SKY/WX    TMP DP  RH WIND       PRES   REMARKS
DENVER INTL AP MOCLDY    83  46  27 W6        30.02R
DMNS CITY PARK   N/A     77  49  36 W3        30.03R
AURORA         MOCLDY    78  51  39 S2        30.05R
FRONT RANGE AP NOT AVBL
ERIE MUNI ARPT MOCLDY    75  51  43 CALM      30.01R
BOULDER MUN AP MOCLDY    81  45  28 W3        30.01R
CENTENNIAL     MOCLDY    78  45  30 CALM      30.06R
BROOMFIELD     MOCLDY    77  46  33 W6        30.05R
FORT COLLINS   CLOUDY    75  55  50 N17       30.03R
LONGMONT       CLOUDY    78  50  38 NE7       30.03R
$$

COZ041-046-047-076>085-087-088-110500-
...PIKES PEAK/PALMER DIVIDE AND SOUTHERN FOOTHILLS...

CITY           SKY/WX    TMP DP  RH WIND       PRES   REMARKS
COLO. SPRINGS  PTCLDY    81  33  17 CALM      30.10R
A. F. ACADEMY  CLEAR     65  48  53 N10       30.13R
ELLICOTT       NOT AVBL
FALCON         PTCLDY    73  32  22 CALM      30.16R
FORT CARSON    CLEAR     74  37  25 NW6       30.05R
LIMON          PTCLDY    70  40  33 SE3       30.03R
MONUMENT HILL  PTCLDY    66  32  28 SW5       30.17R
TRINIDAD       PTCLDY    80  49  33 SW22G31   30.06R
$$

COZ042>045-048>051-090-091-110500-
...NORTHEAST COLORADO...

CITY           SKY/WX    TMP DP  RH WIND       PRES   REMARKS
GREELEY ARPT   NOT AVBL
AKRON          PTCLDY    76  64  66 SE13      29.97R
BURLINGTON     CLEAR     76  62  62 SE12      29.96R
WRAY             N/A     80  66  64 E13       29.93R
STERLING       PTCLDY    84  68  58 SE8       29.91R
HOLYOKE        CLEAR     79  64  61 SE13      29.93R
FORT MORGAN    PTCLDY    78  57  48 SE9       29.95R
$$

COZ086-089-092>099-110500-
...SOUTHEAST COLORADO...

CITY           SKY/WX    TMP DP  RH WIND       PRES   REMARKS
PUEBLO         CLEAR     80  39  23 E6        29.93R
LA JUNTA       CLEAR     90  51  26 S13       29.93R
LAMAR          CLEAR     88  49  25 S18       29.90R
SPRINGFIELD      N/A     79  48  33 S20       30.02R
$$



USA.gov is the U.S. government's official web portal to all federal, state and local government web resources and services.